Accueil
METAR-TAF:

METAR-TAF

Aéroports :

Bradshaw, Hawaii, États-Unis

Bradshaw Army Air Field

latitude: 19-47N, longitude: 155-33W, altitude: 1887 m

Observation

Le bulletin a été fait il y a 51 minutes, à 12:56 UTC
Vent 4 kt de sud/sud-est
Température 12°C
Humidité 82%
Pression 1027 hPa
Visibilité: 16.1 km
Ciel clair

METAR: PHSF 211256Z AUTO 15004KT 10SM CLR 12/09 A3032 RMK AO2 SLP154 WND DATA ESTMD T01160086 $

Heure: 03:47 (13:47 UTC)


TAF: absent

Observations et prévisions météorologiques de plus de 4000 aéroports (messages METAR et TAF).

Les stations disponibles sont représentées par des disques jaunes et rouges sur la carte.

Passer la souris dessus pour voir le nom de la station.

Cliquer dessus pour voir les observations et prévisions météorologiques.

Pour changer de carte: cliquez sur les boutons verts avec une croix noire pour zoomer, sur le bouton vert avec un tiret pour effectuer un zoom arrière, ou sur les flèches vertes pour les cartes adjacentes.


METAR-TAF: